^^
Station Historical Data
Daily Summary for May 16, 2018 Units:  English    Metric   Both
« Previous Day
Next Day »
Daily Weekly Monthly Yearly Custom
  High: Low: Average:
Temperature: 86.7 °F 54.8 °F 73 °F
Dew Point: 56.6 °F 44.5 °F 49.7 °F
Humidity: 79% 24% 47%
Wind Speed: 21.0mph 0.0mph 5.4mph
Wind Gust: 24.0mph - -
Wind- - SSE
Pressure: 29.81 in 29.72 in -
Precipitation: 0.00 in    
Historical Graphs
 
 
Tabular Data for May 16, 2018
Time Temperature Dew Point Pressure Wind Wind Speed Wind Gust Humidity Rainfall Rate (Hourly) solar Conditions
00:01 66.7 °F 51.0 °F 29.78 in South 10.0 mph 13.0 mph 57% 0.00 in 0 W/m2
00:06 66.6 °F 50.9 °F 29.78 in SSW 7.0 mph 13.0 mph 57% 0.00 in 0 W/m2
00:11 66.6 °F 50.9 °F 29.78 in SSW 8.0 mph 14.0 mph 57% 0.00 in 0 W/m2
00:16 66.6 °F 50.9 °F 29.78 in South 9.0 mph 14.0 mph 57% 0.00 in 0 W/m2
00:21 66.4 °F 50.7 °F 29.78 in SSE 10.0 mph 13.0 mph 57% 0.00 in 0 W/m2
00:26 66.3 °F 50.6 °F 29.78 in SSW 8.0 mph 12.0 mph 57% 0.00 in 0 W/m2
00:31 66.2 °F 50.5 °F 29.78 in SW 7.0 mph 12.0 mph 57% 0.00 in 0 W/m2
00:36 65.9 °F 50.2 °F 29.78 in SW 7.0 mph 11.0 mph 57% 0.00 in 0 W/m2
00:41 65.7 °F 50.0 °F 29.78 in SSW 7.0 mph 10.0 mph 57% 0.00 in 0 W/m2
00:46 65.4 °F 49.8 °F 29.78 in SSW 8.0 mph 10.0 mph 57% 0.00 in 0 W/m2
00:51 65.1 °F 50.0 °F 29.78 in South 6.0 mph 9.0 mph 58% 0.00 in 0 W/m2
00:56 64.8 °F 49.7 °F 29.78 in SSW 5.0 mph 7.0 mph 58% 0.00 in 0 W/m2
01:01 64.5 °F 49.8 °F 29.78 in SW 5.0 mph 7.0 mph 59% 0.00 in 0 W/m2
01:06 64.3 °F 49.7 °F 29.78 in SW 3.0 mph 7.0 mph 59% 0.00 in 0 W/m2
01:11 64.1 °F 49.5 °F 29.78 in SSW 5.0 mph 7.0 mph 59% 0.00 in 0 W/m2
01:16 64.1 °F 49.5 °F 29.78 in South 5.0 mph 7.0 mph 59% 0.00 in 0 W/m2
01:21 64.1 °F 49.5 °F 29.78 in SW 4.0 mph 10.0 mph 59% 0.00 in 0 W/m2
01:26 64.0 °F 49.4 °F 29.77 in SSW 7.0 mph 10.0 mph 59% 0.00 in 0 W/m2
01:31 64.1 °F 49.5 °F 29.78 in SSW 6.0 mph 8.0 mph 59% 0.00 in 0 W/m2
01:36 64.1 °F 49.5 °F 29.78 in WNW 3.0 mph 8.0 mph 59% 0.00 in 0 W/m2
01:41 63.7 °F 49.1 °F 29.78 in WSW 2.0 mph 8.0 mph 59% 0.00 in 0 W/m2
01:46 63.2 °F 49.1 °F 29.78 in WSW 4.0 mph 5.0 mph 60% 0.00 in 0 W/m2
01:51 62.7 °F 49.1 °F 29.78 in SW 5.0 mph 7.0 mph 61% 0.00 in 0 W/m2
01:56 62.6 °F 49.4 °F 29.78 in SW 3.0 mph 7.0 mph 62% 0.00 in 0 W/m2
02:01 62.4 °F 49.2 °F 29.78 in SW 4.0 mph 6.0 mph 62% 0.00 in 0 W/m2
02:06 62.3 °F 49.1 °F 29.78 in SW 4.0 mph 6.0 mph 62% 0.00 in 0 W/m2
02:11 62.3 °F 49.1 °F 29.78 in South 3.0 mph 6.0 mph 62% 0.00 in 0 W/m2
02:16 62.3 °F 49.1 °F 29.78 in SSW 2.0 mph 5.0 mph 62% 0.00 in 0 W/m2
02:21 62.2 °F 49.0 °F 29.78 in SSW 2.0 mph 5.0 mph 62% 0.00 in 0 W/m2
02:26 62.1 °F 48.9 °F 29.78 in SSW 3.0 mph 5.0 mph 62% 0.00 in 0 W/m2
02:31 62.0 °F 49.3 °F 29.78 in SW 2.0 mph 4.0 mph 63% 0.00 in 0 W/m2
02:36 61.9 °F 49.2 °F 29.78 in SSW 3.0 mph 4.0 mph 63% 0.00 in 0 W/m2
02:41 61.8 °F 49.1 °F 29.78 in SSW 4.0 mph 4.0 mph 63% 0.00 in 0 W/m2
02:46 61.7 °F 49.0 °F 29.78 in South 3.0 mph 5.0 mph 63% 0.00 in 0 W/m2
02:51 61.5 °F 49.2 °F 29.78 in South 2.0 mph 5.0 mph 64% 0.00 in 0 W/m2
02:53 61.4 °F 49.1 °F 29.78 in South 3.0 mph 5.0 mph 64% 0.00 in 0 W/m2
02:58 61.2 °F 48.9 °F 29.78 in South 3.0 mph 5.0 mph 64% 0.00 in 0 W/m2
03:03 61.1 °F 48.8 °F 29.78 in South 4.0 mph 4.0 mph 64% 0.00 in 0 W/m2
03:08 61.0 °F 48.7 °F 29.78 in South 4.0 mph 4.0 mph 64% 0.00 in 0 W/m2
03:13 60.8 °F 49.0 °F 29.78 in South 4.0 mph 5.0 mph 65% 0.00 in 0 W/m2
03:18 60.7 °F 49.3 °F 29.78 in South 3.0 mph 5.0 mph 66% 0.00 in 0 W/m2
03:23 60.6 °F 49.2 °F 29.78 in South 5.0 mph 6.0 mph 66% 0.00 in 0 W/m2
03:28 60.7 °F 49.3 °F 29.78 in South 4.0 mph 6.0 mph 66% 0.00 in 0 W/m2
03:33 60.5 °F 49.1 °F 29.78 in South 6.0 mph 6.0 mph 66% 0.00 in 0 W/m2
03:38 60.5 °F 49.1 °F 29.78 in South 4.0 mph 6.0 mph 66% 0.00 in 0 W/m2
03:43 60.4 °F 49.0 °F 29.78 in South 6.0 mph 7.0 mph 66% 0.00 in 0 W/m2
03:48 60.4 °F 49.0 °F 29.78 in South 4.0 mph 8.0 mph 66% 0.00 in 0 W/m2
03:53 60.4 °F 49.0 °F 29.78 in South 6.0 mph 8.0 mph 66% 0.00 in 0 W/m2
03:58 60.2 °F 48.8 °F 29.78 in South 5.0 mph 6.0 mph 66% 0.00 in 0 W/m2
04:03 60.1 °F 48.7 °F 29.78 in SSW 4.0 mph 6.0 mph 66% 0.00 in 0 W/m2
04:08 60.1 °F 48.7 °F 29.78 in South 4.0 mph 7.0 mph 66% 0.00 in 0 W/m2
04:13 59.9 °F 48.9 °F 29.78 in SSW 4.0 mph 7.0 mph 67% 0.00 in 0 W/m2
04:18 59.7 °F 48.7 °F 29.78 in South 4.0 mph 5.0 mph 67% 0.00 in 0 W/m2
04:23 59.7 °F 48.7 °F 29.78 in SSW 3.0 mph 6.0 mph 67% 0.00 in 0 W/m2
04:28 59.5 °F 48.5 °F 29.78 in SSW 3.0 mph 6.0 mph 67% 0.00 in 0 W/m2
04:33 59.3 °F 48.3 °F 29.78 in SSW 4.0 mph 5.0 mph 67% 0.00 in 0 W/m2
04:38 59.2 °F 48.6 °F 29.78 in SSW 3.0 mph 5.0 mph 68% 0.00 in 0 W/m2
04:43 59.1 °F 48.5 °F 29.79 in SSW 3.0 mph 5.0 mph 68% 0.00 in 0 W/m2
04:48 58.9 °F 48.4 °F 29.79 in South 4.0 mph 5.0 mph 68% 0.00 in 0 W/m2
04:53 58.7 °F 48.6 °F 29.79 in South 5.0 mph 6.0 mph 69% 0.00 in 0 W/m2
04:58 58.5 °F 48.4 °F 29.79 in South 5.0 mph 6.0 mph 69% 0.00 in 0 W/m2
05:03 58.4 °F 48.3 °F 29.79 in South 6.0 mph 7.0 mph 69% 0.00 in 0 W/m2
05:08 58.2 °F 48.5 °F 29.78 in South 7.0 mph 7.0 mph 70% 0.00 in 0 W/m2
05:13 58.1 °F 48.4 °F 29.78 in South 7.0 mph 8.0 mph 70% 0.00 in 0 W/m2
05:18 58.1 °F 48.4 °F 29.78 in South 5.0 mph 8.0 mph 70% 0.00 in 0 W/m2
05:23 58.2 °F 48.5 °F 29.78 in SSW 5.0 mph 7.0 mph 70% 0.00 in 0 W/m2
05:28 58.4 °F 49.0 °F 29.78 in SSW 5.0 mph 7.0 mph 71% 0.00 in 0 W/m2
05:33 58.7 °F 48.9 °F 29.78 in SSW 5.0 mph 7.0 mph 70% 0.00 in 0 W/m2
05:38 58.6 °F 48.5 °F 29.78 in SSW 4.0 mph 6.0 mph 69% 0.00 in 0 W/m2
05:43 58.5 °F 48.7 °F 29.79 in SSW 3.0 mph 6.0 mph 70% 0.00 in 0 W/m2
05:48 58.3 °F 48.6 °F 29.78 in SSW 3.0 mph 5.0 mph 70% 0.00 in 0 W/m2
05:53 58.2 °F 48.5 °F 29.78 in SSW 4.0 mph 5.0 mph 70% 0.00 in 0 W/m2
05:58 57.9 °F 48.6 °F 29.79 in South 4.0 mph 5.0 mph 71% 0.00 in 0 W/m2
06:03 57.5 °F 48.5 °F 29.79 in South 4.0 mph 6.0 mph 72% 0.00 in 0 W/m2
06:08 57.2 °F 48.3 °F 29.79 in South 4.0 mph 6.0 mph 72% 0.00 in 5 W/m2
06:13 57.0 °F 48.4 °F 29.79 in South 3.0 mph 6.0 mph 73% 0.00 in 7 W/m2
06:18 56.9 °F 48.3 °F 29.79 in South 2.0 mph 6.0 mph 73% 0.00 in 11 W/m2
06:23 56.6 °F 48.0 °F 29.79 in SSE 2.0 mph 5.0 mph 73% 0.00 in 12 W/m2
06:28 56.3 °F 48.1 °F 29.80 in SSE 1.0 mph 4.0 mph 74% 0.00 in 14 W/m2
06:33 56.2 °F 48.0 °F 29.80 in South 2.0 mph 3.0 mph 74% 0.00 in 16 W/m2
06:38 56.0 °F 47.8 °F 29.80 in South 2.0 mph 3.0 mph 74% 0.00 in 19 W/m2
06:43 55.8 °F 48.0 °F 29.80 in SSE 2.0 mph 3.0 mph 75% 0.00 in 21 W/m2
06:48 55.6 °F 47.4 °F 29.80 in ESE 3.0 mph 4.0 mph 74% 0.00 in 23 W/m2
06:53 55.1 °F 47.7 °F 29.80 in ESE 3.0 mph 4.0 mph 76% 0.00 in 25 W/m2
06:59 54.8 °F 47.7 °F 29.81 in SE 3.0 mph 5.0 mph 77% 0.00 in 25 W/m2
07:04 54.8 °F 48.4 °F 29.80 in SE 3.0 mph 5.0 mph 79% 0.00 in 26 W/m2
07:09 54.9 °F 48.5 °F 29.81 in SE 4.0 mph 4.0 mph 79% 0.00 in 28 W/m2
07:14 55.1 °F 48.7 °F 29.81 in SSE 4.0 mph 5.0 mph 79% 0.00 in 30 W/m2
07:19 55.5 °F 49.1 °F 29.81 in SSE 3.0 mph 5.0 mph 79% 0.00 in 30 W/m2
07:24 55.9 °F 49.1 °F 29.81 in South 3.0 mph 4.0 mph 78% 0.00 in 32 W/m2
07:29 56.3 °F 49.5 °F 29.81 in South 3.0 mph 5.0 mph 78% 0.00 in 33 W/m2
07:34 56.8 °F 50.0 °F 29.81 in South 3.0 mph 5.0 mph 78% 0.00 in 35 W/m2
07:39 57.3 °F 50.5 °F 29.81 in South 3.0 mph 5.0 mph 78% 0.00 in 35 W/m2
07:44 57.9 °F 51.1 °F 29.80 in South 2.0 mph 4.0 mph 78% 0.00 in 192 W/m2
07:49 58.5 °F 51.3 °F 29.80 in SSW 2.0 mph 5.0 mph 77% 0.00 in 213 W/m2
07:54 59.4 °F 51.1 °F 29.80 in SSW 4.0 mph 5.0 mph 74% 0.00 in 227 W/m2
07:59 60.5 °F 51.4 °F 29.80 in SSW 5.0 mph 6.0 mph 72% 0.00 in 246 W/m2
08:04 61.3 °F 51.4 °F 29.81 in SSW 4.0 mph 7.0 mph 70% 0.00 in 262 W/m2
08:09 62.1 °F 51.8 °F 29.80 in SSW 2.0 mph 7.0 mph 69% 0.00 in 276 W/m2
08:14 62.9 °F 52.2 °F 29.80 in South 3.0 mph 5.0 mph 68% 0.00 in 288 W/m2
08:19 63.7 °F 52.5 °F 29.80 in South 3.0 mph 4.0 mph 67% 0.00 in 302 W/m2
08:24 64.7 °F 53.5 °F 29.80 in SSE 4.0 mph 5.0 mph 67% 0.00 in 320 W/m2
08:29 65.3 °F 54.1 °F 29.80 in South 6.0 mph 7.0 mph 67% 0.00 in 336 W/m2
08:34 66.0 °F 54.3 °F 29.81 in South 5.0 mph 7.0 mph 66% 0.00 in 350 W/m2
08:39 66.6 °F 53.2 °F 29.80 in South 9.0 mph 10.0 mph 62% 0.00 in 366 W/m2
08:44 66.9 °F 53.0 °F 29.80 in South 8.0 mph 10.0 mph 61% 0.00 in 383 W/m2
08:49 66.9 °F 52.6 °F 29.80 in SW 8.0 mph 10.0 mph 60% 0.00 in 394 W/m2
08:54 66.9 °F 53.0 °F 29.81 in SW 8.0 mph 10.0 mph 61% 0.00 in 410 W/m2
08:59 67.3 °F 53.4 °F 29.80 in SSW 7.0 mph 8.0 mph 61% 0.00 in 424 W/m2
09:04 67.7 °F 53.8 °F 29.80 in South 3.0 mph 8.0 mph 61% 0.00 in 438 W/m2
09:09 67.8 °F 53.4 °F 29.81 in SW 5.0 mph 9.0 mph 60% 0.00 in 454 W/m2
09:14 68.1 °F 54.1 °F 29.80 in SSW 4.0 mph 9.0 mph 61% 0.00 in 468 W/m2
09:19 68.4 °F 53.0 °F 29.80 in WSW 4.0 mph 7.0 mph 58% 0.00 in 483 W/m2
09:24 68.8 °F 54.3 °F 29.81 in SW 3.0 mph 7.0 mph 60% 0.00 in 494 W/m2
09:29 69.3 °F 54.4 °F 29.81 in SSE 4.0 mph 7.0 mph 59% 0.00 in 508 W/m2
09:34 69.7 °F 54.3 °F 29.80 in SSW 4.0 mph 7.0 mph 58% 0.00 in 524 W/m2
09:39 70.1 °F 55.1 °F 29.80 in WSW 5.0 mph 7.0 mph 59% 0.00 in 538 W/m2
09:44 70.9 °F 55.4 °F 29.80 in SSW 4.0 mph 7.0 mph 58% 0.00 in 552 W/m2
09:46 71.3 °F 56.2 °F 29.80 in SW 5.0 mph 8.0 mph 59% 0.00 in 559 W/m2
09:51 71.8 °F 54.8 °F 29.80 in SSW 6.0 mph 9.0 mph 55% 0.00 in 568 W/m2
09:56 72.1 °F 55.0 °F 29.80 in WSW 11.0 mph 11.0 mph 55% 0.00 in 587 W/m2
10:01 72.5 °F 55.4 °F 29.80 in WSW 9.0 mph 11.0 mph 55% 0.00 in 601 W/m2
10:06 73.2 °F 55.6 °F 29.80 in SW 8.0 mph 11.0 mph 54% 0.00 in 613 W/m2
10:11 73.8 °F 56.1 °F 29.80 in SW 8.0 mph 10.0 mph 54% 0.00 in 628 W/m2
10:16 74.3 °F 56.6 °F 29.80 in SW 5.0 mph 11.0 mph 54% 0.00 in 640 W/m2
10:21 74.8 °F 55.5 °F 29.80 in SW 5.0 mph 12.0 mph 51% 0.00 in 650 W/m2
10:26 75.1 °F 56.3 °F 29.80 in SW 6.0 mph 12.0 mph 52% 0.00 in 663 W/m2
10:31 75.9 °F 55.9 °F 29.80 in WSW 10.0 mph 13.0 mph 50% 0.00 in 675 W/m2
10:36 76.6 °F 56.6 °F 29.80 in WSW 9.0 mph 13.0 mph 50% 0.00 in 687 W/m2
10:41 77.0 °F 55.2 °F 29.80 in SW 8.0 mph 13.0 mph 47% 0.00 in 698 W/m2
10:46 77.4 °F 55.6 °F 29.80 in SSW 7.0 mph 11.0 mph 47% 0.00 in 710 W/m2
10:51 77.7 °F 55.9 °F 29.80 in SSW 7.0 mph 10.0 mph 47% 0.00 in 722 W/m2
10:56 78.5 °F 54.8 °F 29.80 in South 7.0 mph 9.0 mph 44% 0.00 in 731 W/m2
11:01 79.1 °F 55.3 °F 29.80 in SSW 7.0 mph 9.0 mph 44% 0.00 in 742 W/m2
11:06 79.1 °F 52.7 °F 29.79 in SW 6.0 mph 10.0 mph 40% 0.00 in 733 W/m2
11:11 79.1 °F 53.4 °F 29.79 in South 4.0 mph 10.0 mph 41% 0.00 in 710 W/m2
11:16 79.6 °F 53.1 °F 29.79 in SSW 6.0 mph 8.0 mph 40% 0.00 in 659 W/m2
11:21 80.3 °F 52.4 °F 29.79 in WSW 3.0 mph 10.0 mph 38% 0.00 in 633 W/m2
11:26 80.6 °F 53.4 °F 29.79 in SSW 5.0 mph 10.0 mph 39% 0.00 in 619 W/m2
11:31 80.4 °F 51.0 °F 29.79 in WSW 5.0 mph 10.0 mph 36% 0.00 in 629 W/m2
11:36 80.6 °F 51.2 °F 29.79 in South 4.0 mph 10.0 mph 36% 0.00 in 670 W/m2
11:41 81.5 °F 52.0 °F 29.79 in South 9.0 mph 11.0 mph 36% 0.00 in 737 W/m2
11:46 81.5 °F 51.2 °F 29.78 in ENE 1.0 mph 13.0 mph 35% 0.00 in 800 W/m2
11:51 80.8 °F 49.8 °F 29.78 in WSW 6.0 mph 13.0 mph 34% 0.00 in 835 W/m2
11:56 80.7 °F 49.7 °F 29.78 in NE 1.0 mph 8.0 mph 34% 0.00 in 838 W/m2
12:01 81.6 °F 48.0 °F 29.78 in NNE 5.0 mph 7.0 mph 31% 0.00 in 856 W/m2
12:06 82.1 °F 46.7 °F 29.78 in NE 2.0 mph 6.0 mph 29% 0.00 in 863 W/m2
12:11 82.4 °F 46.9 °F 29.78 in NNE 2.0 mph 6.0 mph 29% 0.00 in 867 W/m2
12:16 82.5 °F 48.8 °F 29.78 in Calm   6.0 mph 31% 0.00 in 877 W/m2
12:21 83.0 °F 48.4 °F 29.78 in SE 1.0 mph 5.0 mph 30% 0.00 in 881 W/m2
12:26 82.9 °F 49.2 °F 29.78 in South 4.0 mph 7.0 mph 31% 0.00 in 886 W/m2
12:31 82.9 °F 50.0 °F 29.78 in ESE 3.0 mph 7.0 mph 32% 0.00 in 893 W/m2
12:36 83.5 °F 52.2 °F 29.78 in South 8.0 mph 10.0 mph 34% 0.00 in 900 W/m2
12:41 83.9 °F 49.1 °F 29.78 in East 9.0 mph 11.0 mph 30% 0.00 in 902 W/m2
12:46 83.7 °F 49.0 °F 29.78 in ESE 7.0 mph 11.0 mph 30% 0.00 in 909 W/m2
12:51 83.4 °F 49.6 °F 29.78 in ESE 1.0 mph 12.0 mph 31% 0.00 in 914 W/m2
12:56 82.9 °F 47.4 °F 29.78 in NNE 2.0 mph 12.0 mph 29% 0.00 in 916 W/m2
13:01 83.1 °F 47.5 °F 29.78 in East 9.0 mph 9.0 mph 29% 0.00 in 914 W/m2
13:06 83.4 °F 49.6 °F 29.77 in ESE 3.0 mph 11.0 mph 31% 0.00 in 919 W/m2
13:11 83.5 °F 48.8 °F 29.77 in ESE 4.0 mph 11.0 mph 30% 0.00 in 923 W/m2
13:16 83.6 °F 48.0 °F 29.77 in SSW 4.0 mph 9.0 mph 29% 0.00 in 925 W/m2
13:21 83.7 °F 49.9 °F 29.77 in North 2.0 mph 9.0 mph 31% 0.00 in 921 W/m2
13:26 83.8 °F 50.8 °F 29.77 in West 2.0 mph 6.0 mph 32% 0.00 in 926 W/m2
13:31 84.1 °F 48.4 °F 29.77 in SW 2.0 mph 6.0 mph 29% 0.00 in 926 W/m2
13:36 84.4 °F 49.6 °F 29.77 in SSE 2.0 mph 6.0 mph 30% 0.00 in 930 W/m2
13:41 85.1 °F 51.9 °F 29.76 in SSE 3.0 mph 6.0 mph 32% 0.00 in 932 W/m2
13:46 84.9 °F 50.9 °F 29.76 in ESE 9.0 mph 15.0 mph 31% 0.00 in 932 W/m2
13:51 84.2 °F 48.5 °F 29.76 in SE 6.0 mph 15.0 mph 29% 0.00 in 925 W/m2
13:56 83.7 °F 48.1 °F 29.76 in Calm   11.0 mph 29% 0.00 in 926 W/m2
14:01 84.0 °F 48.3 °F 29.76 in ENE 7.0 mph 13.0 mph 29% 0.00 in 925 W/m2
14:06 84.2 °F 49.4 °F 29.76 in Calm   13.0 mph 30% 0.00 in 921 W/m2
14:11 84.4 °F 51.3 °F 29.76 in SSW 6.0 mph 10.0 mph 32% 0.00 in 921 W/m2
14:16 84.9 °F 50.0 °F 29.76 in South 4.0 mph 15.0 mph 30% 0.00 in 919 W/m2
14:21 85.1 °F 50.2 °F 29.76 in SE 8.0 mph 15.0 mph 30% 0.00 in 919 W/m2
14:26 84.8 °F 49.9 °F 29.76 in SSE 6.0 mph 14.0 mph 30% 0.00 in 914 W/m2
14:31 84.9 °F 50.9 °F 29.76 in SSE 5.0 mph 14.0 mph 31% 0.00 in 911 W/m2
14:36 84.9 °F 50.0 °F 29.76 in SE 3.0 mph 11.0 mph 30% 0.00 in 904 W/m2
14:41 85.0 °F 49.2 °F 29.76 in SE 3.0 mph 7.0 mph 29% 0.00 in 893 W/m2
14:46 85.4 °F 51.3 °F 29.76 in SSE 7.0 mph 9.0 mph 31% 0.00 in 895 W/m2
14:51 85.5 °F 50.5 °F 29.76 in SSW 7.0 mph 9.0 mph 30% 0.00 in 891 W/m2
14:56 85.0 °F 50.1 °F 29.76 in SW 8.0 mph 14.0 mph 30% 0.00 in 888 W/m2
15:01 84.9 °F 49.1 °F 29.76 in Calm   14.0 mph 29% 0.00 in 889 W/m2
15:06 85.1 °F 49.3 °F 29.76 in South 8.0 mph 14.0 mph 29% 0.00 in 879 W/m2
15:12 85.3 °F 50.4 °F 29.76 in WSW 5.0 mph 11.0 mph 30% 0.00 in 875 W/m2
15:17 85.6 °F 52.4 °F 29.76 in ESE 3.0 mph 8.0 mph 32% 0.00 in 881 W/m2
15:22 85.8 °F 51.7 °F 29.76 in East 5.0 mph 10.0 mph 31% 0.00 in 900 W/m2
15:27 85.4 °F 50.4 °F 29.75 in ESE 8.0 mph 10.0 mph 30% 0.00 in 246 W/m2
15:32 85.2 °F 51.1 °F 29.75 in SE 7.0 mph 9.0 mph 31% 0.00 in 863 W/m2
15:37 85.6 °F 52.4 °F 29.75 in SSE 7.0 mph 14.0 mph 32% 0.00 in 865 W/m2
15:42 85.3 °F 52.1 °F 29.75 in WSW 2.0 mph 14.0 mph 32% 0.00 in 882 W/m2
15:47 84.5 °F 51.4 °F 29.75 in ESE 2.0 mph 11.0 mph 32% 0.00 in 160 W/m2
15:52 84.3 °F 52.9 °F 29.75 in East 3.0 mph 6.0 mph 34% 0.00 in 896 W/m2
15:57 85.1 °F 54.4 °F 29.75 in SSE 8.0 mph 8.0 mph 35% 0.00 in 837 W/m2
16:02 85.9 °F 52.6 °F 29.75 in SSE 5.0 mph 11.0 mph 32% 0.00 in 812 W/m2
16:07 86.1 °F 52.8 °F 29.75 in South 4.0 mph 11.0 mph 32% 0.00 in 810 W/m2
16:12 86.5 °F 53.1 °F 29.74 in SSW 6.0 mph 10.0 mph 32% 0.00 in 798 W/m2
16:17 86.6 °F 54.1 °F 29.74 in SSW 5.0 mph 10.0 mph 33% 0.00 in 803 W/m2
16:22 86.0 °F 51.0 °F 29.74 in ESE 5.0 mph 7.0 mph 30% 0.00 in 121 W/m2
16:27 84.5 °F 51.4 °F 29.74 in SE 8.0 mph 12.0 mph 32% 0.00 in 158 W/m2
16:32 84.7 °F 51.6 °F 29.74 in SSE 7.0 mph 15.0 mph 32% 0.00 in 773 W/m2
16:37 85.6 °F 50.6 °F 29.75 in SE 4.0 mph 15.0 mph 30% 0.00 in 754 W/m2
16:42 85.6 °F 49.7 °F 29.74 in SE 4.0 mph 12.0 mph 29% 0.00 in 728 W/m2
16:47 86.2 °F 50.2 °F 29.74 in SSE 11.0 mph 15.0 mph 29% 0.00 in 710 W/m2
16:52 86.1 °F 50.1 °F 29.74 in South 3.0 mph 15.0 mph 29% 0.00 in 691 W/m2
16:57 86.2 °F 49.3 °F 29.74 in SE 5.0 mph 13.0 mph 28% 0.00 in 682 W/m2
17:02 86.2 °F 48.3 °F 29.74 in South 6.0 mph 13.0 mph 27% 0.00 in 659 W/m2
17:07 85.9 °F 49.0 °F 29.74 in SE 4.0 mph 13.0 mph 28% 0.00 in 649 W/m2
17:12 86.2 °F 49.3 °F 29.74 in ESE 5.0 mph 14.0 mph 28% 0.00 in 633 W/m2
17:17 86.0 °F 49.1 °F 29.74 in ESE 4.0 mph 14.0 mph 28% 0.00 in 624 W/m2
17:22 86.2 °F 50.2 °F 29.74 in South 8.0 mph 9.0 mph 29% 0.00 in 613 W/m2
17:27 86.3 °F 48.4 °F 29.74 in SE 6.0 mph 11.0 mph 27% 0.00 in 601 W/m2
17:32 86.3 °F 47.4 °F 29.74 in SSE 3.0 mph 11.0 mph 26% 0.00 in 589 W/m2
17:37 86.7 °F 46.7 °F 29.74 in SSE 6.0 mph 9.0 mph 25% 0.00 in 568 W/m2
17:42 86.6 °F 47.6 °F 29.74 in SE 4.0 mph 13.0 mph 26% 0.00 in 559 W/m2
17:47 86.5 °F 47.5 °F 29.74 in ESE 9.0 mph 13.0 mph 26% 0.00 in 547 W/m2
17:52 86.2 °F 46.2 °F 29.74 in SE 10.0 mph 13.0 mph 25% 0.00 in 529 W/m2
17:57 86.1 °F 45.1 °F 29.74 in ESE 7.0 mph 13.0 mph 24% 0.00 in 515 W/m2
18:02 86.3 °F 46.3 °F 29.73 in SE 8.0 mph 14.0 mph 25% 0.00 in 501 W/m2
18:07 86.2 °F 46.2 °F 29.74 in SE 8.0 mph 14.0 mph 25% 0.00 in 489 W/m2
18:12 86.2 °F 47.3 °F 29.73 in South 4.0 mph 13.0 mph 26% 0.00 in 475 W/m2
18:17 86.3 °F 47.4 °F 29.73 in SE 5.0 mph 11.0 mph 26% 0.00 in 459 W/m2
18:22 86.1 °F 47.2 °F 29.73 in SSE 8.0 mph 11.0 mph 26% 0.00 in 445 W/m2
18:27 85.9 °F 47.0 °F 29.73 in South 11.0 mph 12.0 mph 26% 0.00 in 431 W/m2
18:32 86.0 °F 47.1 °F 29.73 in SE 8.0 mph 12.0 mph 26% 0.00 in 411 W/m2
18:37 85.7 °F 46.9 °F 29.73 in South 6.0 mph 11.0 mph 26% 0.00 in 401 W/m2
18:42 85.8 °F 46.9 °F 29.73 in South 7.0 mph 10.0 mph 26% 0.00 in 385 W/m2
18:47 85.7 °F 46.9 °F 29.73 in SSE 6.0 mph 11.0 mph 26% 0.00 in 371 W/m2
18:52 85.7 °F 46.9 °F 29.73 in SSE 7.0 mph 11.0 mph 26% 0.00 in 357 W/m2
18:57 85.5 °F 47.7 °F 29.73 in SSE 6.0 mph 12.0 mph 27% 0.00 in 341 W/m2
19:02 85.3 °F 46.5 °F 29.72 in SE 5.0 mph 12.0 mph 26% 0.00 in 323 W/m2
19:07 85.3 °F 46.5 °F 29.72 in SSE 6.0 mph 10.0 mph 26% 0.00 in 308 W/m2
19:12 85.2 °F 48.4 °F 29.72 in SSE 8.0 mph 10.0 mph 28% 0.00 in 294 W/m2
19:17 85.1 °F 46.4 °F 29.72 in SSE 5.0 mph 10.0 mph 26% 0.00 in 279 W/m2
19:22 84.9 °F 47.2 °F 29.72 in SSE 7.0 mph 11.0 mph 27% 0.00 in 264 W/m2
19:27 84.8 °F 47.1 °F 29.72 in SSE 3.0 mph 11.0 mph 27% 0.00 in 244 W/m2
19:32 84.9 °F 48.2 °F 29.72 in SSE 4.0 mph 7.0 mph 28% 0.00 in 225 W/m2
19:37 84.7 °F 48.0 °F 29.72 in SSE 8.0 mph 9.0 mph 28% 0.00 in 207 W/m2
19:42 84.2 °F 47.6 °F 29.72 in SSE 6.0 mph 9.0 mph 28% 0.00 in 188 W/m2
19:47 83.8 °F 47.2 °F 29.72 in SSE 7.0 mph 10.0 mph 28% 0.00 in 172 W/m2
19:52 83.5 °F 47.0 °F 29.72 in SE 6.0 mph 10.0 mph 28% 0.00 in 155 W/m2
19:57 83.3 °F 47.7 °F 29.72 in SSE 3.0 mph 9.0 mph 29% 0.00 in 137 W/m2
20:02 83.2 °F 47.6 °F 29.72 in SSE 4.0 mph 8.0 mph 29% 0.00 in 120 W/m2
20:07 82.7 °F 48.1 °F 29.73 in SE 6.0 mph 10.0 mph 30% 0.00 in 104 W/m2
20:12 82.2 °F 48.6 °F 29.73 in SSE 6.0 mph 10.0 mph 31% 0.00 in 90 W/m2
20:17 81.9 °F 47.4 °F 29.73 in SSE 4.0 mph 9.0 mph 30% 0.00 in 76 W/m2
20:22 81.6 °F 48.0 °F 29.73 in SE 5.0 mph 9.0 mph 31% 0.00 in 65 W/m2
20:27 81.2 °F 48.5 °F 29.73 in SE 4.0 mph 8.0 mph 32% 0.00 in 53 W/m2
20:32 80.7 °F 47.2 °F 29.73 in SE 5.0 mph 7.0 mph 31% 0.00 in 42 W/m2
20:37 80.1 °F 47.6 °F 29.73 in SE 3.0 mph 6.0 mph 32% 0.00 in 33 W/m2
20:42 79.8 °F 47.3 °F 29.73 in SE 4.0 mph 6.0 mph 32% 0.00 in 26 W/m2
20:47 79.4 °F 47.0 °F 29.73 in SE 3.0 mph 5.0 mph 32% 0.00 in 19 W/m2
20:52 79.0 °F 46.6 °F 29.73 in SE 2.0 mph 5.0 mph 32% 0.00 in 16 W/m2
20:57 78.5 °F 47.0 °F 29.73 in SE 2.0 mph 4.0 mph 33% 0.00 in 14 W/m2
21:02 78.0 °F 46.6 °F 29.73 in ESE 2.0 mph 3.0 mph 33% 0.00 in 11 W/m2
21:07 77.4 °F 46.0 °F 29.73 in ESE 3.0 mph 4.0 mph 33% 0.00 in 7 W/m2
21:12 76.8 °F 46.3 °F 29.73 in ESE 3.0 mph 4.0 mph 34% 0.00 in 5 W/m2
21:17 76.1 °F 45.7 °F 29.73 in East 5.0 mph 5.0 mph 34% 0.00 in 0 W/m2
21:22 75.8 °F 45.4 °F 29.73 in East 6.0 mph 6.0 mph 34% 0.00 in 0 W/m2
21:27 75.9 °F 45.5 °F 29.73 in East 5.0 mph 6.0 mph 34% 0.00 in 0 W/m2
21:32 76.1 °F 44.9 °F 29.73 in East 5.0 mph 6.0 mph 33% 0.00 in 0 W/m2
21:37 76.1 °F 44.9 °F 29.73 in East 6.0 mph 7.0 mph 33% 0.00 in 0 W/m2
21:42 76.1 °F 44.9 °F 29.73 in East 6.0 mph 7.0 mph 33% 0.00 in 0 W/m2
21:47 76.2 °F 45.0 °F 29.73 in East 7.0 mph 8.0 mph 33% 0.00 in 0 W/m2
21:52 76.0 °F 44.8 °F 29.74 in East 7.0 mph 8.0 mph 33% 0.00 in 0 W/m2
21:57 75.7 °F 44.5 °F 29.74 in ENE 5.0 mph 7.0 mph 33% 0.00 in 0 W/m2
22:02 75.1 °F 44.8 °F 29.74 in East 6.0 mph 7.0 mph 34% 0.00 in 0 W/m2
22:07 75.0 °F 44.7 °F 29.74 in East 6.0 mph 7.0 mph 34% 0.00 in 0 W/m2
22:12 74.8 °F 44.5 °F 29.74 in East 6.0 mph 8.0 mph 34% 0.00 in 0 W/m2
22:17 74.4 °F 45.0 °F 29.74 in ENE 7.0 mph 9.0 mph 35% 0.00 in 0 W/m2
22:22 73.6 °F 45.0 °F 29.75 in ENE 4.0 mph 9.0 mph 36% 0.00 in 0 W/m2
22:27 72.8 °F 45.0 °F 29.75 in ENE 5.0 mph 9.0 mph 37% 0.00 in 0 W/m2
22:32 71.9 °F 44.9 °F 29.75 in ENE 9.0 mph 9.0 mph 38% 0.00 in 0 W/m2
22:37 71.5 °F 45.9 °F 29.75 in ENE 5.0 mph 9.0 mph 40% 0.00 in 0 W/m2
22:42 71.5 °F 45.9 °F 29.76 in ENE 9.0 mph 10.0 mph 40% 0.00 in 0 W/m2
22:47 71.2 °F 45.6 °F 29.76 in ENE 11.0 mph 13.0 mph 40% 0.00 in 0 W/m2
22:52 71.2 °F 47.6 °F 29.76 in East 7.0 mph 14.0 mph 43% 0.00 in 0 W/m2
22:57 71.3 °F 48.9 °F 29.76 in East 14.0 mph 18.0 mph 45% 0.00 in 0 W/m2
23:02 71.2 °F 49.9 °F 29.76 in NE 10.0 mph 18.0 mph 47% 0.00 in 0 W/m2
23:07 71.1 °F 51.0 °F 29.76 in ENE 13.0 mph 21.0 mph 49% 0.00 in 0 W/m2
23:12 71.0 °F 50.9 °F 29.76 in East 17.0 mph 22.0 mph 49% 0.00 in 0 W/m2
23:17 71.1 °F 51.5 °F 29.76 in ENE 8.0 mph 23.0 mph 50% 0.00 in 0 W/m2
23:22 70.9 °F 51.9 °F 29.76 in ENE 12.0 mph 23.0 mph 51% 0.00 in 0 W/m2
23:27 70.7 °F 52.2 °F 29.76 in ENE 12.0 mph 22.0 mph 52% 0.00 in 0 W/m2
23:32 70.3 °F 51.8 °F 29.76 in ENE 21.0 mph 23.0 mph 52% 0.00 in 0 W/m2
23:37 69.9 °F 52.0 °F 29.76 in ENE 16.0 mph 23.0 mph 53% 0.00 in 0 W/m2
23:42 69.5 °F 51.6 °F 29.76 in ENE 16.0 mph 22.0 mph 53% 0.00 in 0 W/m2
23:47 69.0 °F 51.7 °F 29.76 in East 16.0 mph 22.0 mph 54% 0.00 in 0 W/m2
23:52 68.5 °F 51.7 °F 29.76 in ENE 13.0 mph 22.0 mph 55% 0.00 in 0 W/m2
23:53 68.4 °F 51.6 °F 29.76 in NE 15.0 mph 24.0 mph 55% 0.00 in 0 W/m2
23:58 68.0 °F 51.2 °F 29.76 in ENE 11.0 mph 24.0 mph 55% 0.00 in 0 W/m2
Bismarck, North Dakota, USA
Compliments of Weather Underground - 2 mb